Stations météo

réclame
Mon MeteoGroup
Stockholm/Bromma, Suède (2464): Température de l'air & dewpoint: 19.02.2018 06:00:00 - 25.02.2018 06:00:00 (CET)Stockholm/Bromma, Suède (2464): Vitesse du vent: 19.02.2018 06:00:00 - 25.02.2018 06:00:00 (CET)Stockholm/Bromma, Suède (2464): Direction du vent: 19.02.2018 06:00:00 - 25.02.2018 06:00:00 (CET)Stockholm/Bromma, Suède (2464): reduced air pressure: 19.02.2018 06:00:00 - 25.02.2018 06:00:00 (CET)Stockholm/Bromma, Suède (2464): visibility: 19.02.2018 06:00:00 - 25.02.2018 06:00:00 (CET)
Date & Time tt [°C] td [°C] ff [km/h] ff [knt] dd ppp [hPa] vv [km]
25.02.2018 06:00:00 -11,3 -13,3 8 4 NNW 1040,0 2,3
25.02.2018 05:00:00 -11,7 -13,9 9 5 N 1039,9 10
25.02.2018 04:00:00 -11,5 -14,0 8 4 N 1039,7 10
25.02.2018 03:00:00 -10,9 -13,7 13 7 NNE 1039,7 10
25.02.2018 02:00:00 -10,5 -13,3 8 4 N 1039,6 10
25.02.2018 01:00:00 -9,9 -12,8 9 5 NNE 1039,6 10
25.02.2018 00:00:00 -8,8 -11,5 9 5 N 1039,6 10
24.02.2018 23:00:00 -8,6 -11,4 9 5 N 1039,3 10
24.02.2018 22:00:00 -8,4 -11,4 9 5 N 1039,1 10
24.02.2018 21:00:00 -7,6 -11,1 11 6 N 1039,0 10
24.02.2018 20:00:00 -7,4 -11,1 8 4 N 1038,9 10
24.02.2018 19:00:00 -6,9 -10,6 8 4 N 1038,9 10
24.02.2018 18:00:00 -6,4 -10,3 8 4 N 1038,8 10
24.02.2018 17:00:00 -5,9 -10,5 9 5 N 1038,8 10
24.02.2018 16:00:00 -5,4 -10,4 11 6 N 1038,9 10
24.02.2018 15:00:00 -5,3 -10,3 9 5 N 1039,0 10
24.02.2018 14:00:00 -5,4 -10,6 13 7 NNE 1039,2 10
24.02.2018 13:00:00 -5,6 -10,4 11 6 N 1039,2 10
24.02.2018 12:00:00 -5,9 -10,1 15 8 NE 1039,3 10
24.02.2018 11:00:00 -6,4 -11,0 8 4 NE 1039,6 10
24.02.2018 10:00:00 -7,2 -11,9 5 3 N 1039,5 10
24.02.2018 09:00:00 -8,3 -11,9 5 3 N 1039,3 10
24.02.2018 08:00:00 -9,8 -12,1 8 4 N 1039,1 10
24.02.2018 07:00:00 -10,2 -12,8 9 5 NNE 1038,8 10
24.02.2018 06:00:00 -9,9 -12,2 9 5 N 1038,5 10
24.02.2018 05:00:00 -10,0 -12,0 8 4 N 1037,7 10
24.02.2018 04:00:00 -10,4 -12,0 5 3 NNE 1037,2 10
24.02.2018 03:00:00 -10,4 -12,0 5 3 N 1036,7 10
24.02.2018 02:00:00 -9,2 -11,0 5 3 NNE 1036,3 10
24.02.2018 01:00:00 -8,4 -10,3 8 4 NNE 1035,9 10
24.02.2018 00:00:00 -7,9 -10,0 9 5 N 1035,2 10
23.02.2018 23:00:00 -7,8 -9,7 9 5 N 1034,7 10
23.02.2018 22:00:00 -7,5 -10,5 11 6 NNE 1034,3 10
23.02.2018 21:00:00 -7,2 -10,4 5 3 NNE 1033,6 10
23.02.2018 20:00:00 -6,7 -10,2 11 6 NNE 1033,0 10
23.02.2018 19:00:00 -5,7 -9,3 9 5 N 1032,3 10
23.02.2018 18:00:00 -5,0 -8,6 11 6 NNE 1031,6 10
23.02.2018 17:00:00 -4,1 -7,9 13 7 NE 1030,8 10
23.02.2018 16:00:00 -3,6 -6,2 13 7 ENE 1029,8 10
23.02.2018 15:00:00 -2,4 -7,9 15 8 NNE 1029,1 10
23.02.2018 14:00:00 -2,7 -7,6 15 8 N 1028,6 10
23.02.2018 13:00:00 -2,7 -7,8 15 8 N 1028,2 10
23.02.2018 12:00:00 -2,7 -6,3 16 9 N 1027,8 9
23.02.2018 11:00:00 -3,2 -6,0 15 8 NNW 1027,7 8
23.02.2018 10:00:00 -3,3 -6,4 11 6 N 1027,1 10
23.02.2018 09:00:00 -3,8 -6,1 8 4 NNW 1026,8 10
23.02.2018 08:00:00 -4,1 -6,2 8 4 N 1026,3 10
23.02.2018 07:00:00 -4,0 -5,5 5 3 N 1025,9 10
23.02.2018 06:00:00 -3,8 -4,2 5 3 N 1025,8 5
23.02.2018 05:00:00 -3,5 -3,9 5 3 NNW 1025,5 4,7
23.02.2018 04:00:00 -3,5 -4,0 0 0 N 1025,6 2,0
23.02.2018 03:00:00 -3,5 -4,5 2 1 SW 1025,9 5
23.02.2018 02:00:00 -3,4 -5,4 5 3 W 1026,1 10
23.02.2018 01:00:00 -3,5 -5,8 4 2 SSW 1026,4 10
23.02.2018 00:00:00 -3,7 -6,2 4 2 SSE 1026,6 10
22.02.2018 23:00:00 -3,9 -6,4 4 2 SSW 1026,9 10
22.02.2018 22:00:00 -3,9 -6,8 5 3 - 1027,2 10
22.02.2018 21:00:00 -4,1 -7,4 5 3 WSW 1027,4 10
22.02.2018 20:00:00 -4,5 -7,9 4 2 - 1027,7 10
22.02.2018 19:00:00 -5,4 -8,5 0 0 N 1028,0 10
22.02.2018 18:00:00 -6,6 -9,6 4 2 W 1028,1 10
22.02.2018 17:00:00 -4,9 -9,0 5 3 W 1028,0 10
22.02.2018 16:00:00 -3,3 -8,5 5 3 WSW 1028,3 10
22.02.2018 15:00:00 -2,5 -7,8 11 6 W 1028,8 10
22.02.2018 14:00:00 -2,2 -7,5 11 6 W 1029,1 10
22.02.2018 13:00:00 -3,2 -7,0 5 3 WNW 1029,4 10
22.02.2018 12:00:00 -3,3 -6,6 4 2 - 1029,5 10
22.02.2018 11:00:00 -3,8 -6,1 5 3 WNW 1029,9 10
22.02.2018 10:00:00 -4,6 -7,0 0 0 N 1030,0 10
22.02.2018 09:00:00 -5,8 -7,5 5 3 WNW 1030,0 10
22.02.2018 08:00:00 -6,2 -7,3 4 2 - 1029,9 10
22.02.2018 07:00:00 -6,3 -7,5 0 0 N 1029,8 10
22.02.2018 06:00:00 -6,5 -7,3 5 3 WNW 1029,6 10
22.02.2018 05:00:00 -6,5 -7,2 2 1 SE 1029,6 4,5
22.02.2018 04:00:00 -7,0 -7,8 2 1 - 1029,8 2,4
22.02.2018 03:00:00 -7,5 -8,4 4 2 WNW 1030,0 10
22.02.2018 02:00:00 -8,4 -9,2 2 1 N 1030,2 10
22.02.2018 01:00:00 -9,6 -10,7 2 1 NNW 1029,9 8
22.02.2018 00:00:00 -9,2 -10,3 5 3 NNW 1029,9 9
21.02.2018 23:00:00 -7,8 -9,0 2 1 N 1029,7 10
21.02.2018 22:00:00 -5,9 -8,3 5 3 NE 1029,6 10
21.02.2018 21:00:00 -5,5 -8,2 5 3 N 1029,4 10
21.02.2018 20:00:00 -4,5 -7,6 5 3 NE 1028,9 10
21.02.2018 19:00:00 -4,2 -7,5 9 5 NNE 1028,6 10
21.02.2018 18:00:00 -3,9 -7,7 8 4 NE 1028,2 10
21.02.2018 17:00:00 -3,7 -8,2 9 5 ENE 1027,7 10
21.02.2018 16:00:00 -3,2 -8,8 8 4 N 1027,5 10
21.02.2018 15:00:00 -3,3 -8,9 9 5 NNW 1027,4 10
21.02.2018 14:00:00 -2,8 -9,3 5 3 N 1027,5 10
21.02.2018 13:00:00 -3,0 -9,5 8 4 N 1027,6 10
21.02.2018 12:00:00 -3,2 -8,5 5 3 NNW 1027,6 10
21.02.2018 11:00:00 -4,3 -8,9 5 3 NNW 1027,5 10
21.02.2018 10:00:00 -5,0 -8,7 5 3 NE 1027,5 10
21.02.2018 09:00:00 -5,8 -8,1 0 0 N 1027,4 10
21.02.2018 08:00:00 -6,9 -8,6 5 3 WNW 1027,1 10
21.02.2018 07:00:00 -7,0 -8,6 4 2 NNW 1026,8 10
21.02.2018 06:00:00 -7,1 -8,6 0 0 N 1026,9 10
21.02.2018 05:00:00 -7,2 -8,6 4 2 WNW 1027,2 10
21.02.2018 04:00:00 -7,2 -8,7 0 0 N 1027,4 10
21.02.2018 03:00:00 -7,3 -8,7 4 2 - 1027,5 10
21.02.2018 02:00:00 -7,2 -8,6 0 0 N 1027,7 10
21.02.2018 01:00:00 -7,3 -8,8 4 2 NW 1028,0 10
21.02.2018 00:00:00 -7,3 -8,9 5 3 W 1028,4 10
20.02.2018 23:00:00 -8,3 -9,6 4 2 W 1028,3 10
20.02.2018 22:00:00 -9,4 -10,5 4 2 W 1028,1 10
20.02.2018 21:00:00 -10,5 -11,7 2 1 W 1028,3 10
20.02.2018 20:00:00 -9,5 -10,8 4 2 - 1028,3 10
20.02.2018 19:00:00 -8,8 -10,9 4 2 W 1028,4 10
20.02.2018 18:00:00 -7,3 -10,8 4 2 N 1028,2 10
20.02.2018 17:00:00 -4,8 -10,0 8 4 NNE 1028,1 10
20.02.2018 16:00:00 -3,9 -9,5 5 3 NNE 1028,2 10
20.02.2018 15:00:00 -3,8 -9,2 8 4 N 1028,2 10
20.02.2018 14:00:00 -3,6 -9,4 8 4 NE 1028,4 10
20.02.2018 13:00:00 -3,5 -10,4 9 5 N 1028,6 10
20.02.2018 12:00:00 -3,6 -10,0 8 4 N 1028,8 10
20.02.2018 11:00:00 -3,9 -9,1 4 2 - 1028,9 10
20.02.2018 10:00:00 -4,6 -7,4 5 3 NNW 1029,0 10
20.02.2018 09:00:00 -5,0 -6,7 5 3 N 1029,0 10
20.02.2018 08:00:00 -5,0 -6,2 4 2 - 1028,7 4,5
20.02.2018 07:00:00 -4,9 -6,4 8 4 N 1028,5 8
20.02.2018 06:00:00 -4,8 -6,3 5 3 N 1028,6 8
20.02.2018 05:00:00 -4,8 -6,5 8 4 N 1028,5 5
20.02.2018 04:00:00 -4,7 -6,7 8 4 N 1028,5 5
20.02.2018 03:00:00 -4,7 -6,7 8 4 N 1028,8 7
20.02.2018 02:00:00 -4,5 -6,6 5 3 N 1028,7 10
20.02.2018 01:00:00 -4,5 -6,6 8 4 N 1028,8 10
20.02.2018 00:00:00 -4,4 -6,5 8 4 N 1028,8 10
19.02.2018 23:00:00 -4,5 -6,6 5 3 N 1028,8 8
19.02.2018 22:00:00 -4,5 -6,6 8 4 N 1028,7 8
19.02.2018 21:00:00 -4,3 -7,1 9 5 NE 1028,8 10
19.02.2018 20:00:00 -4,3 -7,2 9 5 NNE 1028,6 10
19.02.2018 19:00:00 -4,3 -7,1 5 3 NNE 1028,3 10
19.02.2018 18:00:00 -4,2 -7,3 8 4 ENE 1027,9 10
19.02.2018 17:00:00 -4,4 -7,5 18 10 ENE 1028,0 10
19.02.2018 16:00:00 -3,7 -7,1 13 7 NNE 1027,4 10
19.02.2018 15:00:00 -3,3 -6,8 13 7 ENE 1027,1 10
19.02.2018 14:00:00 -3,3 -6,9 14 8 NE 1026,8 14
19.02.2018 13:00:00 -3,2 -7,2 15 8 NE 1026,5 10
19.02.2018 12:00:00 -3,1 -5,7 15 8 ENE 1026,3 10
19.02.2018 11:00:00 -2,7 -4,9 18 10 NE 1025,8 10
19.02.2018 10:00:00 -2,3 -4,3 21 11 ENE 1025,1 5
19.02.2018 09:00:00 -2,1 -3,7 18 10 ENE 1024,6 4,5
19.02.2018 08:00:00 -1,8 -2,6 16 9 ENE 1024,0 5
19.02.2018 07:00:00 -1,6 -2,3 16 9 ENE 1023,4 5
19.02.2018 06:00:00 -1,3 -1,7 11 6 ENE 1022,8 3,5

tt = Température de l'air
td = dewpoint
ff = Vitesse du vent
dd = Direction du vent
ppp = reduced air pressure
vv = visibility

stations d'obs. à proximité